TimePST,TemperatureF,Dew PointF,Humidity,Sea Level PressureIn,VisibilityMPH,Wind Direction,Wind SpeedMPH,Gust SpeedMPH,PrecipitationIn,Events,Conditions,WindDirDegrees,DateUTC
12:15 AM,53.6,50.0,88,30.05,8.0,Calm,Calm,-,N/A,,Scattered Clouds,0,2012-11-22 08:15:00
12:23 AM,55.4,50.0,82,30.06,8.0,Calm,Calm,-,N/A,,Mostly Cloudy,0,2012-11-22 08:23:00
12:39 AM,55.4,50.0,82,30.06,8.0,Calm,Calm,-,N/A,,Overcast,0,2012-11-22 08:39:00
12:51 AM,55.9,51.1,84,30.06,7.0,ENE,3.5,-,N/A,,Overcast,70,2012-11-22 08:51:00
1:51 AM,57.9,54.0,87,30.06,4.0,Calm,Calm,-,N/A,,Overcast,0,2012-11-22 09:51:00
2:51 AM,57.0,53.1,87,30.06,4.0,ENE,3.5,-,N/A,,Overcast,70,2012-11-22 10:51:00
3:51 AM,57.0,53.1,87,30.05,3.0,Calm,Calm,-,N/A,,Overcast,0,2012-11-22 11:51:00
4:10 AM,55.4,51.8,88,30.06,3.0,Calm,Calm,-,N/A,,Overcast,0,2012-11-22 12:10:00
4:23 AM,55.4,51.8,88,30.06,2.5,Calm,Calm,-,N/A,,Overcast,0,2012-11-22 12:23:00
4:36 AM,55.4,51.8,88,30.06,2.5,Calm,Calm,-,N/A,,Haze,0,2012-11-22 12:36:00
4:49 AM,53.6,51.8,94,30.06,2.5,NE,3.5,-,N/A,,Scattered Clouds,40,2012-11-22 12:49:00
4:51 AM,54.0,50.0,86,30.06,2.5,NE,3.5,-,N/A,,Partly Cloudy,50,2012-11-22 12:51:00
5:00 AM,53.6,50.0,88,30.06,3.0,ENE,4.6,-,N/A,,Scattered Clouds,70,2012-11-22 13:00:00
5:04 AM,53.6,50.0,88,30.06,3.0,ENE,3.5,-,N/A,,Mostly Cloudy,70,2012-11-22 13:04:00
5:16 AM,53.6,50.0,88,30.06,2.5,ENE,3.5,-,N/A,,Mostly Cloudy,70,2012-11-22 13:16:00
5:24 AM,53.6,50.0,88,30.06,1.2,East,4.6,-,N/A,,Overcast,80,2012-11-22 13:24:00
5:32 AM,53.6,50.0,88,30.06,0.2,ENE,4.6,-,N/A,Fog,Fog,60,2012-11-22 13:32:00
5:51 AM,53.1,50.0,89,30.07,0.2,ENE,5.8,-,0.01,Fog,Fog,70,2012-11-22 13:51:00
6:51 AM,54.0,51.1,90,30.09,0.2,ENE,3.5,-,N/A,Fog,Fog,60,2012-11-22 14:51:00
8:16 AM,55.4,51.8,88,30.11,1.2,Calm,Calm,-,N/A,,Overcast,0,2012-11-22 16:16:00
8:28 AM,55.4,51.8,88,30.12,2.0,Calm,Calm,-,N/A,,Mostly Cloudy,0,2012-11-22 16:28:00
8:40 AM,57.2,51.8,82,30.12,3.0,Calm,Calm,-,N/A,,Haze,0,2012-11-22 16:40:00
8:51 AM,57.9,53.1,84,30.12,3.0,Calm,Calm,-,N/A,,Haze,0,2012-11-22 16:51:00
9:51 AM,64.0,51.1,63,30.12,6.0,Calm,Calm,-,N/A,,Haze,0,2012-11-22 17:51:00
10:51 AM,66.0,53.1,63,30.10,4.0,SSW,5.8,-,N/A,,Haze,210,2012-11-22 18:51:00
11:51 AM,66.0,53.1,63,30.08,5.0,SSW,5.8,-,N/A,,Haze,210,2012-11-22 19:51:00
12:51 PM,64.0,53.1,67,30.06,6.0,WSW,6.9,-,N/A,,Haze,250,2012-11-22 20:51:00
1:51 PM,64.0,53.1,67,30.05,8.0,Variable,6.9,-,N/A,,Clear,0,2012-11-22 21:51:00
2:51 PM,63.0,53.1,70,30.05,7.0,West,5.8,-,N/A,,Clear,270,2012-11-22 22:51:00
3:51 PM,61.0,53.1,75,30.05,6.0,WSW,5.8,-,N/A,,Haze,250,2012-11-22 23:51:00
4:51 PM,60.1,53.1,78,30.06,4.0,SW,3.5,-,N/A,,Haze,230,2012-11-23 00:51:00
5:51 PM,59.0,54.0,83,30.08,4.0,Calm,Calm,-,N/A,,Haze,0,2012-11-23 01:51:00
6:51 PM,59.0,54.0,83,30.09,4.0,Calm,Calm,-,N/A,,Haze,0,2012-11-23 02:51:00
7:51 PM,57.9,54.0,87,30.10,3.0,Calm,Calm,-,N/A,,Scattered Clouds,0,2012-11-23 03:51:00
8:51 PM,57.0,53.1,87,30.12,1.8,Calm,Calm,-,N/A,,Overcast,0,2012-11-23 04:51:00
9:08 PM,57.2,53.6,88,30.12,1.0,Calm,Calm,-,N/A,,Overcast,0,2012-11-23 05:08:00
9:18 PM,55.4,53.6,94,30.12,0.8,Calm,Calm,-,N/A,,Mist,0,2012-11-23 05:18:00
9:34 PM,55.4,51.8,88,30.12,0.8,Calm,Calm,-,N/A,,Mist,0,2012-11-23 05:34:00
9:43 PM,55.4,51.8,88,30.12,1.2,Calm,Calm,-,N/A,,Mostly Cloudy,0,2012-11-23 05:43:00
9:51 PM,55.9,52.0,87,30.12,1.0,Calm,Calm,-,N/A,,Mist,0,2012-11-23 05:51:00
10:03 PM,55.4,51.8,88,30.12,1.5,Calm,Calm,-,N/A,,Partly Cloudy,0,2012-11-23 06:03:00
10:13 PM,57.2,51.8,82,30.13,2.5,Calm,Calm,-,N/A,,Haze,0,2012-11-23 06:13:00
10:51 PM,55.9,52.0,87,30.13,2.0,Calm,Calm,-,N/A,,Partly Cloudy,0,2012-11-23 06:51:00
11:03 PM,55.4,51.8,88,30.13,1.5,Calm,Calm,-,N/A,,Scattered Clouds,0,2012-11-23 07:03:00
11:05 PM,55.4,51.8,88,30.13,1.5,Calm,Calm,-,N/A,,Mostly Cloudy,0,2012-11-23 07:05:00
11:19 PM,55.4,51.8,88,30.13,1.5,Calm,Calm,-,N/A,,Overcast,0,2012-11-23 07:19:00
11:24 PM,55.4,51.8,88,30.13,1.2,Calm,Calm,-,N/A,,Overcast,0,2012-11-23 07:24:00
11:40 PM,55.4,51.8,88,30.12,1.2,Calm,Calm,-,N/A,,Mostly Cloudy,0,2012-11-23 07:40:00
11:45 PM,55.4,51.8,88,30.12,1.8,Calm,Calm,-,N/A,,Scattered Clouds,0,2012-11-23 07:45:00
11:51 PM,55.0,51.1,86,30.12,1.8,Calm,Calm,-,N/A,,Scattered Clouds,0,2012-11-23 07:51:00